Terminal Aerodrome Forecast
Issued by NWS Melbourne, FL

Home | Current Version | Previous Version | Text Only | Print | Product List | Glossary On
Versions: 1 2 3 4 5 6 7 8 9 10 11 12 13 14 15 16 17 18 19 20 21
000
FTUS42 KMLB 062323
TAFVRB
TAF
KVRB 062323Z 0700/0724 01014G20KT P6SM BKN009
     FM070500 01013KT P6SM OVC004
     FM071400 02014G21KT P6SM BKN010 OVC015=

USA.gov is the U.S. government's official web portal to all federal, state and local government web resources and services.